TimeEST,TemperatureF,Dew PointF,Humidity,Sea Level PressureIn,VisibilityMPH,Wind Direction,Wind SpeedMPH,Gust SpeedMPH,PrecipitationIn,Events,Conditions,WindDirDegrees,DateUTC
12:11 AM,33.8,30.2,87,29.52,2.5,Calm,Calm,-,0.00,Snow,Light Snow,0,2013-02-20 05:11:00
12:35 AM,33.8,30.2,87,29.50,4.0,Calm,Calm,-,0.01,Snow,Light Snow,0,2013-02-20 05:35:00
12:42 AM,33.8,30.2,87,29.50,4.0,Calm,Calm,-,0.01,Snow,Light Snow,0,2013-02-20 05:42:00
12:52 AM,33.1,30.0,89,29.53,4.0,Calm,Calm,-,0.01,Snow,Light Snow,0,2013-02-20 05:52:00
1:49 AM,32.0,30.2,93,29.48,5.0,Calm,Calm,-,0.00,Snow,Light Snow,0,2013-02-20 06:49:00
1:52 AM,33.1,30.0,89,29.51,4.0,Calm,Calm,-,0.01,Snow,Light Snow,0,2013-02-20 06:52:00
2:03 AM,32.0,30.2,93,29.47,2.0,Calm,Calm,-,0.02,Snow,Light Snow,0,2013-02-20 07:03:00
2:10 AM,32.0,30.2,93,29.47,1.0,Variable,3.5,-,0.03,Snow,Light Snow,0,2013-02-20 07:10:00
2:27 AM,32.0,30.2,93,29.47,1.5,Calm,Calm,-,0.05,Snow,Light Snow,0,2013-02-20 07:27:00
2:52 AM,33.1,30.0,89,29.50,1.5,West,9.2,-,0.07,Snow,Light Snow,280,2013-02-20 07:52:00
3:03 AM,30.2,28.4,93,29.48,1.0,WNW,18.4,25.3,0.00,Snow,Light Snow,290,2013-02-20 08:03:00
3:21 AM,30.2,26.6,86,29.49,1.2,WNW,9.2,21.9,0.00,Snow,Light Snow,300,2013-02-20 08:21:00
3:31 AM,30.2,26.6,86,29.50,2.0,WNW,8.1,-,0.00,Snow,Light Snow,300,2013-02-20 08:31:00
3:49 AM,30.2,26.6,86,29.50,1.8,NW,5.8,-,0.01,Snow,Light Snow,320,2013-02-20 08:49:00
3:52 AM,28.9,26.1,89,29.53,1.5,NW,5.8,-,0.01,Snow,Light Snow,310,2013-02-20 08:52:00
4:01 AM,28.4,26.6,93,29.50,1.5,WNW,5.8,-,0.01,Snow,Light Snow,300,2013-02-20 09:01:00
4:07 AM,28.4,26.6,93,29.51,0.8,West,3.5,-,0.02,Snow,Light Snow,260,2013-02-20 09:07:00
4:14 AM,28.4,26.6,93,29.51,0.5,West,4.6,-,0.04,Fog-Snow,Snow,270,2013-02-20 09:14:00
4:22 AM,28.4,24.8,86,29.52,1.2,West,6.9,-,0.04,Snow,Light Snow,260,2013-02-20 09:22:00
4:35 AM,28.4,24.8,86,29.52,1.0,West,11.5,16.1,0.05,Snow,Light Snow,260,2013-02-20 09:35:00
4:47 AM,28.4,24.8,86,29.53,1.2,Variable,4.6,-,0.05,Snow,Light Snow,0,2013-02-20 09:47:00
4:52 AM,27.0,24.1,89,29.57,1.5,WSW,8.1,-,0.05,Snow,Light Snow,250,2013-02-20 09:52:00
5:06 AM,26.6,21.2,80,29.53,1.5,West,9.2,19.6,0.01,Snow,Light Snow,270,2013-02-20 10:06:00
5:48 AM,26.6,21.2,80,29.53,2.0,Variable,3.5,-,0.02,Snow,Light Snow,0,2013-02-20 10:48:00
5:52 AM,26.1,23.0,88,29.57,2.5,Calm,Calm,-,0.02,Snow,Light Snow,0,2013-02-20 10:52:00
6:10 AM,26.6,21.2,80,29.53,3.0,SW,3.5,-,0.00,Snow,Light Snow,230,2013-02-20 11:10:00
6:21 AM,26.6,21.2,80,29.53,2.5,Calm,Calm,-,0.00,Snow,Light Snow,0,2013-02-20 11:21:00
6:28 AM,26.6,21.2,80,29.53,3.0,Calm,Calm,-,0.01,Snow,Light Snow,0,2013-02-20 11:28:00
6:52 AM,26.1,23.0,88,29.57,1.5,Calm,Calm,-,0.01,Snow,Light Snow,0,2013-02-20 11:52:00
7:02 AM,26.6,23.0,86,29.53,2.0,SSW,3.5,-,0.00,Snow,Light Snow,210,2013-02-20 12:02:00
7:10 AM,26.6,23.0,86,29.53,3.0,SSW,3.5,-,0.00,Snow,Light Snow,210,2013-02-20 12:10:00
7:52 AM,26.1,21.0,81,29.57,10.0,WSW,5.8,-,0.00,,Overcast,240,2013-02-20 12:52:00
7:59 AM,26.6,21.2,80,29.53,10.0,WSW,4.6,-,N/A,,Overcast,240,2013-02-20 12:59:00
8:30 AM,26.6,21.2,80,29.53,10.0,Calm,Calm,-,N/A,,Overcast,0,2013-02-20 13:30:00
8:52 AM,27.0,21.0,78,29.57,10.0,SW,4.6,-,N/A,,Overcast,220,2013-02-20 13:52:00
9:07 AM,26.6,21.2,80,29.53,10.0,WSW,4.6,-,N/A,,Overcast,250,2013-02-20 14:07:00
9:32 AM,26.6,19.4,74,29.53,10.0,Variable,4.6,-,0.00,Snow,Light Snow,0,2013-02-20 14:32:00
9:52 AM,27.0,19.9,75,29.57,9.0,WSW,6.9,-,0.00,Snow,Light Snow,240,2013-02-20 14:52:00
10:52 AM,27.0,16.0,63,29.57,10.0,West,9.2,17.3,0.00,,Overcast,260,2013-02-20 15:52:00
11:52 AM,27.0,16.0,63,29.57,10.0,WSW,5.8,-,N/A,,Overcast,250,2013-02-20 16:52:00
12:52 PM,27.0,16.0,63,29.57,10.0,West,5.8,-,N/A,,Overcast,270,2013-02-20 17:52:00
1:52 PM,26.1,15.1,63,29.57,10.0,West,9.2,-,N/A,,Overcast,270,2013-02-20 18:52:00
2:52 PM,25.0,17.1,72,29.58,9.0,WSW,4.6,-,0.00,Snow,Light Snow,240,2013-02-20 19:52:00
3:07 PM,24.8,17.6,74,29.54,7.0,West,5.8,-,0.00,Snow,Light Snow,270,2013-02-20 20:07:00
3:25 PM,24.8,17.6,74,29.55,2.5,WNW,4.6,-,0.00,Snow,Light Snow,290,2013-02-20 20:25:00
3:52 PM,24.1,19.0,81,29.60,2.0,WNW,4.6,-,0.00,Snow,Light Snow,290,2013-02-20 20:52:00
4:10 PM,24.8,19.4,80,29.56,1.5,West,3.5,-,0.00,Snow,Light Snow,260,2013-02-20 21:10:00
4:40 PM,24.8,19.4,80,29.56,2.0,SW,6.9,-,0.00,Snow,Light Snow,230,2013-02-20 21:40:00
4:52 PM,24.1,18.0,77,29.61,2.0,SW,6.9,-,0.00,Snow,Light Snow,230,2013-02-20 21:52:00
5:01 PM,24.8,19.4,80,29.57,1.8,Variable,5.8,-,0.00,Snow,Light Snow,0,2013-02-20 22:01:00
5:28 PM,23.0,19.4,86,29.58,1.2,WSW,5.8,-,0.01,Snow,Light Snow,250,2013-02-20 22:28:00
5:42 PM,23.0,17.6,80,29.58,2.5,WSW,6.9,-,0.01,Snow,Light Snow,250,2013-02-20 22:42:00
5:49 PM,23.0,17.6,80,29.58,3.0,WSW,6.9,-,0.01,Snow,Light Snow,240,2013-02-20 22:49:00
5:52 PM,23.0,18.0,81,29.63,3.0,SW,6.9,-,0.01,Snow,Light Snow,230,2013-02-20 22:52:00
6:18 PM,23.0,17.6,80,29.59,5.0,SW,6.9,-,0.00,Snow,Light Snow,220,2013-02-20 23:18:00
6:52 PM,23.0,18.0,81,29.65,7.0,SSW,4.6,-,0.00,Snow,Light Snow,200,2013-02-20 23:52:00
7:08 PM,23.0,17.6,80,29.60,9.0,Calm,Calm,-,0.00,Snow,Light Snow,0,2013-02-21 00:08:00
7:52 PM,23.0,16.0,74,29.65,10.0,SSW,5.8,-,0.00,,Overcast,210,2013-02-21 00:52:00
8:10 PM,23.0,15.8,74,29.61,10.0,SW,4.6,-,N/A,,Overcast,220,2013-02-21 01:10:00
8:52 PM,21.9,15.1,75,29.66,10.0,WSW,5.8,-,N/A,,Overcast,240,2013-02-21 01:52:00
10:52 PM,21.9,16.0,78,29.68,10.0,South,4.6,-,0.00,,Overcast,190,2013-02-21 03:52:00
11:52 PM,21.0,17.1,85,29.70,4.0,South,4.6,-,0.00,Snow,Light Snow,190,2013-02-21 04:52:00